SSEC Globe Logo

Space Science and Engineering Center

Wisconsin State Observations

ASUS43 KMKX 171321                                              2019168 1321
RWRWI
WISCONSIN REGIONAL WEATHER ROUNDUP
NATIONAL WEATHER SERVICE MILWAUKEE/SULLIVAN WI
NOTE: "FAIR" INDICATES FEW OR NO CLOUDS BELOW 12,000 FEET WITH NO
SIGNIFICANT WEATHER AND/OR OBSTRUCTIONS TO VISIBILITY.

CITY           SKY/WX    TMP DP  RH WIND       PRES   REMARKS
SUPERIOR ARPT  CLOUDY    47  46  98 NE3       30.00F FOG
ASHLAND        FAIR      54  50  86 CALM      30.00S
HAYWARD        FAIR      56  52  86 S6        30.01R
SIREN          CLOUDY    59  56  89 S6        29.99F
CUMBERLAND     CLOUDY    54  54 100 S8        30.01S FOG
RICE LAKE      CLOUDY    56  54  95 SE5       30.02S FOG
CHETEK         CLOUDY    55  53  95 S3        30.02S
LADYSMITH      FAIR      57  54  88 S8        30.03F
EAU CLAIRE     CLOUDY    56  52  86 CALM      30.00F
MENOMONIE      CLOUDY    54  51  90 E3        30.01F
NEW RICHMOND   CLOUDY    60  55  84 SE3       29.99S
OSCEOLA        CLOUDY    60  57  88 SE5       30.01S


CITY           SKY/WX    TMP DP  RH WIND       PRES   REMARKS
MANITOWISH WTR CLOUDY    55  55 100 S6        30.03R
ARBOR VITAE    CLOUDY    57  52  82 S7        30.02F
WOODRUFF       CLOUDY    57  52  82 S7        30.02F
RHINELANDER    FAIR      59  50  72 CALM      30.04S
EAGLE RIVER    FAIR      59  49  68 SW3       30.03S
LAND O LAKES   FAIR      59  49  68 CALM      30.04F
PHILLIPS       FAIR      57  53  86 S6        30.02S
TOMAHAWK       FAIR      53  52  98 CALM      30.04S
MEDFORD        FAIR      54  52  91 CALM      30.03S
MERRILL        FAIR      56  52  86 CALM      30.05S


CITY           SKY/WX    TMP DP  RH WIND       PRES   REMARKS
WAUSAU         FAIR      55  50  83 CALM      30.02S
MOSINEE        MOSUNNY   54  52  94 CALM      30.05R
MARSHFIELD     FAIR      56  51  84 E3        30.03R
STEVENS POINT  FAIR      55  51  86 E5        30.04S
WAUPACA        FAIR      61  53  72 SE6       30.04S
WAUTOMA        CLOUDY    57  53  86 NE3       30.05R
WISC RAPIDS    FAIR      59  52  77 CALM      30.04S
CAMP DOUGLAS   MOSUNNY   59  54  82 SE6       30.04R


CITY           SKY/WX    TMP DP  RH WIND       PRES   REMARKS
ANTIGO         FAIR      56  51  84 CALM      30.04S
SHAWANO        FAIR      58  55  89 E3        30.04S
OCONTO         FAIR      58  51  76 E3        30.04S
STURGEON BAY   FAIR      58  50  75 MISG      30.05R
GREEN BAY      FAIR      61  55  81 NE8       30.04R
MANITOWOC      CLOUDY    54  49  83 E5        30.05R
APPLETON       PTSUNNY   57  46  67 E6        30.02R
CLINTONVILLE   FAIR      58  50  75 CALM      30.04S
OSHKOSH        CLOUDY    57  51  80 SE8       30.03R


CITY           SKY/WX    TMP DP  RH WIND       PRES   REMARKS
LA CROSSE      CLOUDY    60  51  72 E6        30.01S
SPARTA         CLOUDY    55  52  91 CALM      30.04R
VIROQUA        CLOUDY    55  55 100 SE5       30.04R
BOSCOBEL       CLOUDY    60  54  80 NE5       30.04R
PRAIRIE DU CHI CLOUDY    59  55  87 E6        30.03R
PLATTEVILLE    CLOUDY    57  57 100 E6        30.03S

CITY           SKY/WX    TMP DP  RH WIND       PRES   REMARKS
REEDSBURG      CLOUDY    56  54  92 CALM      30.04S
BARABOO/DELLS  CLOUDY    55  52  87 CALM      30.04S
LONE ROCK      CLOUDY    58  52  80 E3        30.03S
MINERAL POINT  CLOUDY    61  59  94 CALM      30.04R
MADISON        CLOUDY    58  52  80 E3        30.03R
MIDDLETON      CLOUDY    59  53  82 CALM      30.04R
WATERTOWN      CLOUDY    56  55  93 E3        30.03R
MONROE         CLOUDY    56  55  96 CALM      30.02S FOG
JANESVILLE     CLOUDY    59  54  82 NE8       30.02R


CITY           SKY/WX    TMP DP  RH WIND       PRES   REMARKS
MILWAUKEE      CLOUDY    55  49  80 NE7       30.03R
WAUKESHA       CLOUDY    54  48  82 NE5       30.03S
MILWAUKEE/TIMM CLOUDY    55  46  71 N8        30.03S
RACINE         CLOUDY    54  48  80 NE9       30.04R
KENOSHA        CLOUDY    57  52  83 NE7       30.02R
FOND DU LAC    CLOUDY    59  51  75 SE5       30.04R
SHEBOYGAN      CLOUDY    54  48  80 NE6       30.04R
WEST BEND      CLOUDY    54  50  87 NE5       30.03S
JUNEAU         CLOUDY    56  52  84 CALM      30.05R
LSZ147-162-171400-
LAKE SUPERIOR

STATION/POSITION TIME  TEMP    WIND        PRES    WAVE
                       AIR SEA DIR/SP/G            HT/PER
                 (UTC) (F)     (DEG/KT/KT) (MB)    (FT/S)
W MID LAKE BUOY  1250   41 38   50/  4/  6 1016.6R   0

LMZ867-665-643>646-171400-
LAKE MICHIGAN

STATION/POSITION TIME  TEMP    WIND        PRES    WAVE
                       AIR SEA DIR/SP/G            HT/PER
                 (UTC) (F)     (DEG/KT/KT) (MB)    (FT/S)
S GREEN BAY BUOY 1300   57 60   40/  8/ 10 1017.3
N MID LAKE BUOY  1300   42 39   10/  4/  4 1017.9
NORTHPORT PIER   1240   56        CALM     1017.6R
KEWAUNEE LAKESHO 1254   55      50/  3/  8 1016.6R
SHEBOYGAN LAKESH 1300   50      10/  8/  9 1017.4R
MILWAUKEE LAKESH 1300   52      20/ 10/ 11   N/A
S MID LAKE BUOY  1300   46 44   20/  6/  8 1016.7
KENOSHA   LAKESH 1300   54      10/ 10/ 11 1016.3
TC  - TEMPERATURE IN CELSIUS
VSB - VISIBILITY IN STATUTE MILES
WCI - WIND CHILL INDEX
HX  - HEAT INDEX